Hourly Weather Holovachi

Today, 13 April, Tuesday

Time Temperature Precipitation Wind Pressure Humidity
00:00 +12°C° 0 mm 2 mps 752 mmHg 86%
01:00 +10°C° 0 mm 2 mps 752 mmHg 88%
02:00 +10°C° 0 mm 2 mps 752 mmHg 90%
03:00 +10°C° 0 mm 2 mps 752 mmHg 90%
04:00 +10°C° 0 mm 2 mps 752 mmHg 90%
05:00 +10°C° 0 mm 2 mps 752 mmHg 91%
06:00 +10°C° 0 mm 2 mps 752 mmHg 89%
07:00 +12°C° 0 mm 2 mps 752 mmHg 87%
08:00 +13°C° 0 mm 2 mps 752 mmHg 82%
09:00 +14°C° 0 mm 2 mps 752 mmHg 77%
10:00 +14°C° 0 mm 3 mps 752 mmHg 72%
11:00 +16°C° 0 mm 3 mps 751 mmHg 67%
12:00 +16°C° 0 mm 3 mps 751 mmHg 65%
13:00 +17°C° 0 mm 4 mps 751 mmHg 62%
14:00 +17°C° 0 mm 4 mps 751 mmHg 59%
15:00 +17°C° 0 mm 4 mps 750 mmHg 61%
16:00 +16°C° 0 mm 3 mps 750 mmHg 64%
17:00 +14°C° 0 mm 3 mps 750 mmHg 66%
18:00 +13°C° 0 mm 3 mps 750 mmHg 71%
19:00 +12°C° 0 mm 3 mps 750 mmHg 77%
20:00 +12°C° 0 mm 2 mps 750 mmHg 82%
21:00 +12°C° 0 mm 2 mps 750 mmHg 82%
22:00 +12°C° 0 mm 2 mps 750 mmHg 82%
23:00 +10°C° 0 mm 2 mps 750 mmHg 82%

Tomorrow, 14 April, Wednesday

Time Temperature Precipitation Wind Pressure Humidity
00:00 +10°C° 0 mm 2 mps 750 mmHg 84%
01:00 +9°C° 0 mm 2 mps 750 mmHg 85%
02:00 +9°C° 0 mm 2 mps 750 mmHg 87%
03:00 +8°C° 0 mm 2 mps 750 mmHg 88%
04:00 +8°C° 0 mm 2 mps 750 mmHg 89%
05:00 +8°C° 0 mm 2 mps 750 mmHg 89%
06:00 +9°C° 0 mm 3 mps 750 mmHg 84%
07:00 +10°C° 0 mm 3 mps 750 mmHg 79%
08:00 +11°C° 0 mm 3 mps 750 mmHg 74%
09:00 +12°C° 0 mm 3 mps 750 mmHg 69%
10:00 +13°C° 0 mm 3 mps 749 mmHg 64%
11:00 +14°C° 0 mm 3 mps 749 mmHg 58%
12:00 +14°C° 0 mm 3 mps 749 mmHg 56%
13:00 +16°C° 0 mm 3 mps 748 mmHg 53%
14:00 +16°C° 0 mm 3 mps 748 mmHg 51%
15:00 +16°C° 0 mm 3 mps 748 mmHg 54%
16:00 +16°C° 0 mm 3 mps 748 mmHg 57%
17:00 +14°C° 0 mm 3 mps 747 mmHg 60%
18:00 +14°C° 0 mm 2 mps 748 mmHg 63%
19:00 +14°C° 0 mm 2 mps 748 mmHg 67%
20:00 +13°C° 0 mm 2 mps 748 mmHg 70%
21:00 +13°C° 0.1 mm 2 mps 747 mmHg 73%
22:00 +12°C° 0.1 mm 2 mps 747 mmHg 76%
23:00 +12°C° 0.1 mm 2 mps 747 mmHg 78%

Day after tomorrow, 15 April, Thursday

Time Temperature Precipitation Wind Pressure Humidity
00:00 +9°C° 0 mm 2 mps 746 mmHg 84%
01:00 +9°C° 0 mm 2 mps 746 mmHg 84%
02:00 +9°C° 0 mm 2 mps 747 mmHg 84%
03:00 +9°C° 0 mm 2 mps 746 mmHg 84%
04:00 +9°C° 0 mm 2 mps 746 mmHg 85%
05:00 +9°C° 0 mm 2 mps 746 mmHg 85%
06:00 +10°C° 0 mm 2 mps 746 mmHg 79%
07:00 +12°C° 0 mm 2 mps 746 mmHg 77%
08:00 +12°C° 0 mm 3 mps 746 mmHg 74%
09:00 +13°C° 0.3 mm 3 mps 746 mmHg 69%
10:00 +13°C° 0.3 mm 3 mps 746 mmHg 63%
11:00 +14°C° 0.3 mm 3 mps 746 mmHg 57%
12:00 +12°C° 0.3 mm 2 mps 746 mmHg 72%
13:00 +14°C° 0.3 mm 3 mps 745 mmHg 59%
14:00 +17°C° 0.3 mm 4 mps 745 mmHg 46%
15:00 +15°C° 0.1 mm 4 mps 745 mmHg 53%
16:00 +14°C° 0.1 mm 4 mps 745 mmHg 59%
17:00 +13°C° 0.1 mm 4 mps 745 mmHg 66%
18:00 +12°C° 0.1 mm 4 mps 745 mmHg 71%
19:00 +11°C° 0.1 mm 3 mps 745 mmHg 76%
20:00 +10°C° 0.1 mm 2 mps 745 mmHg 80%
21:00 +10°C° 0.3 mm 2 mps 745 mmHg 83%
22:00 +10°C° 0.3 mm 2 mps 745 mmHg 86%
23:00 +9°C° 0.3 mm 2 mps 745 mmHg 88%

16 April, Friday

Time Temperature Precipitation Wind Pressure Humidity
00:00 +9°C° 0.7 mm 3 mps 745 mmHg 89%
01:00 +9°C° 0.7 mm 3 mps 745 mmHg 89%
02:00 +9°C° 0.7 mm 3 mps 745 mmHg 89%
03:00 +9°C° 0.2 mm 3 mps 745 mmHg 91%
04:00 +8°C° 0.2 mm 3 mps 745 mmHg 92%
05:00 +8°C° 0.2 mm 3 mps 745 mmHg 94%
06:00 +7°C° 0 mm 4 mps 745 mmHg 91%
07:00 +7°C° 0 mm 4 mps 745 mmHg 88%
08:00 +7°C° 0 mm 5 mps 746 mmHg 85%
09:00 +8°C° 0 mm 5 mps 746 mmHg 79%
10:00 +9°C° 0 mm 5 mps 746 mmHg 74%
11:00 +9°C° 0 mm 5 mps 746 mmHg 68%
12:00 +9°C° 0 mm 5 mps 746 mmHg 68%
13:00 +8°C° 0 mm 5 mps 747 mmHg 69%
14:00 +8°C° 0 mm 5 mps 747 mmHg 69%
15:00 +8°C° 0 mm 4 mps 747 mmHg 71%
16:00 +8°C° 0 mm 4 mps 747 mmHg 73%
17:00 +8°C° 0 mm 4 mps 747 mmHg 75%
18:00 +7°C° 0 mm 4 mps 747 mmHg 78%
19:00 +7°C° 0 mm 3 mps 748 mmHg 81%
20:00 +7°C° 0 mm 3 mps 748 mmHg 84%
21:00 +7°C° 0 mm 3 mps 748 mmHg 86%
22:00 +5°C° 0 mm 3 mps 748 mmHg 87%
23:00 +6°C° 0 mm 2 mps 749 mmHg 89%

17 April, Saturday

Time Temperature Precipitation Wind Pressure Humidity
00:00 +4°C° 0 mm 3 mps 749 mmHg 89%
01:00 +4°C° 0 mm 3 mps 749 mmHg 89%
02:00 +3°C° 0 mm 3 mps 749 mmHg 89%
03:00 +3°C° 0 mm 3 mps 750 mmHg 88%
04:00 +3°C° 0 mm 3 mps 750 mmHg 87%
05:00 +3°C° 0 mm 3 mps 750 mmHg 86%
06:00 +4°C° 0 mm 3 mps 751 mmHg 83%
07:00 +4°C° 0 mm 3 mps 751 mmHg 79%
08:00 +5°C° 0 mm 3 mps 751 mmHg 75%
09:00 +7°C° 0 mm 3 mps 751 mmHg 73%
10:00 +7°C° 0 mm 3 mps 751 mmHg 71%
11:00 +8°C° 0 mm 3 mps 752 mmHg 69%
12:00 +8°C° 0 mm 3 mps 752 mmHg 68%
13:00 +9°C° 0 mm 3 mps 752 mmHg 67%
14:00 +9°C° 0 mm 2 mps 752 mmHg 66%
15:00 +9°C° 0 mm 2 mps 752 mmHg 66%
16:00 +9°C° 0 mm 2 mps 752 mmHg 66%
17:00 +9°C° 0 mm 2 mps 752 mmHg 66%
18:00 +8°C° 0 mm 2 mps 753 mmHg 71%
19:00 +8°C° 0 mm 1 mps 753 mmHg 77%
20:00 +7°C° 0 mm 1 mps 753 mmHg 82%
21:00 +7°C° 0 mm 1 mps 753 mmHg 83%
22:00 +7°C° 0 mm 1 mps 753 mmHg 84%
23:00 +5°C° 0 mm 0 mps 754 mmHg 86%

18 April, Sunday

Time Temperature Precipitation Wind Pressure Humidity
00:00 +6°C° 0 mm 1 mps 754 mmHg 87%
01:00 +6°C° 0 mm 1 mps 754 mmHg 87%
02:00 +4°C° 0 mm 2 mps 754 mmHg 88%
03:00 +5°C° 0 mm 1 mps 754 mmHg 88%
04:00 +5°C° 0 mm 1 mps 754 mmHg 88%
05:00 +5°C° 0 mm 1 mps 754 mmHg 89%
06:00 +7°C° 0 mm 1 mps 754 mmHg 83%
07:00 +8°C° 0 mm 1 mps 754 mmHg 78%
08:00 +9°C° 0 mm 2 mps 754 mmHg 72%
09:00 +10°C° 0 mm 2 mps 754 mmHg 67%
10:00 +12°C° 0 mm 2 mps 754 mmHg 63%
11:00 +14°C° 0 mm 2 mps 754 mmHg 58%
12:00 +14°C° 0 mm 2 mps 754 mmHg 58%
13:00 +13°C° 0 mm 3 mps 754 mmHg 59%
14:00 +13°C° 0 mm 3 mps 754 mmHg 59%
15:00 +12°C° 0 mm 3 mps 754 mmHg 61%
16:00 +12°C° 0 mm 3 mps 754 mmHg 64%
17:00 +12°C° 0 mm 3 mps 754 mmHg 66%
18:00 +11°C° 0 mm 3 mps 754 mmHg 68%
19:00 +11°C° 0 mm 3 mps 754 mmHg 70%
20:00 +10°C° 0 mm 3 mps 754 mmHg 72%
21:00 +10°C° 0 mm 3 mps 754 mmHg 72%
22:00 +10°C° 0 mm 3 mps 754 mmHg 73%
23:00 +9°C° 0 mm 3 mps 754 mmHg 73%
Show more